Miscellaneous Local Product
Issued by NWS North Platte, NE

Home | Current Version | Previous Version | Text Only | Print | Product List | Glossary On
Versions: 1 2 3 4 5 6 7 8 9 10 11 12 13 14 15 16 17 18 19 20 21 22 23 24 25 26 27 28 29 30 31 32 33 34 35 36 37 38 39 40 41 42 43 44 45 46 47 48 49 50
803
AXUS43 KLBF 271110
MISLBF


WESTERN AND NORTH CENTRAL NEBRASKA HOURLY WEATHER ROUNDUP
NATIONAL WEATHER SERVICE NORTH PLATTE NE
600 AM CDT TUE JUN 27 2017

NOTE: "FAIR" INDICATES FEW OR NO CLOUDS BELOW 12,000 FEET WITH NO
SIGNIFICANT WEATHER AND/OR OBSTRUCTIONS TO VISIBILITY.

NOTE: STATIONS NOT REPORTING VARIABLES SUCH AS SKY/WEATHER OR
PRESSURE ARE PROVIDED BY RAWS AND APRS NETWORKS AND ARE NOT UNDER
NATIONAL WEATHER SERVICE QUALITY CONTROL.

...OBSERVATIONS IN AND NEAR THE EASTERN PANHANDLE OF NEBRASKA...

CITY           SKY/WX    TMP DP  RH WIND       PRES   REMARKS
PINE RIDGE     CLEAR     62  53  72 S39G48    29.87F
GORDON         FAIR      59  52  76 S12       29.95F
CHADRON        CLEAR     64  54  69 S26G40    29.86S
ALLIANCE       CLOUDY    58  53  84 S16G23    29.98F
SIDNEY         CLOUDY    59  56  89 S20G26    30.02F
CRESCENT LAKE    N/A     59  56  88 S13G22      N/A
$$

...OBSERVATIONS IN NORTHERN NEBRASKA AND FAR SOUTHERN SOUTH DAKOTA...

CITY           SKY/WX    TMP DP  RH WIND       PRES   REMARKS
WINNER         FAIR      59  45  59 S20G25    29.97F
VALENTINE      CLEAR     59  51  75 S17       29.99F
THEDFORD       CLEAR     58  55  89 S10       30.03S
AINSWORTH      CLEAR     54  52  93 S13G18    30.02S
O`NEILL        CLEAR     49  45  85 SE6       30.06F
ORD            CLOUDY    55  53  93 SE10      30.04F FOG
BROKEN BOW     MOCLDY    57  55  93 SE9       30.05F
VALENTINE NWR    N/A     52  48  86 S13         N/A
HALSEY           N/A     57  53  88 SE9G16      N/A
BUTTE            N/A     50  43  78 SE8         N/A
CHAMBERS         N/A     50  47  88 CALM        N/A
EWING            N/A     48  45  88 CALM        N/A
$$

...OBSERVATIONS IN SOUTHWEST NEBRASKA AND FAR NORTHEAST COLORADO...

CITY           SKY/WX    TMP DP  RH WIND       PRES   REMARKS
WRAY           FAIR     N/A N/A N/A SE7       30.04F
IMPERIAL       PTCLDY    60  57  89 SE12      30.03F
OGALLALA       CLOUDY    62  58  87 S14G22    30.04F
NORTH PLATTE   PTCLDY    60  57  89 SE13      30.04F
MCCOOK         MOCLDY    59  59 100 SE10      30.03F
LEXINGTON      PTCLDY    59  56  92 SE8       30.06S
STAPLETON        N/A     57  55  93 CALM        N/A
GOTHENBURG       N/A     58  54  86 SE3         N/A
CALLAWAY         N/A     57  55  95 S14         N/A
$$

...OBSERVATIONS IN CENTRAL LINCOLN COUNTY AREA...

CITY           SKY/WX    TMP DP  RH WIND       PRES   REMARKS
N.P. AIRPORT   PTCLDY    60  57  89 SE13      30.04F
N.P. DOWNTOWN    N/A     60  57  89 CALM        N/A
N.P. SOUTHEAST   N/A     59  56  88 SE5         N/A
N.P. HILLCREST   N/A     59  57  92 S12         N/A
$$

...SOME OBSERVATIONS FROM AROUND THE REGION...

CITY           SKY/WX    TMP DP  RH WIND       PRES   REMARKS
DENVER         CLOUDY    63  46  54 CALM      30.02F
LIMON          CLOUDY    56  56 100 SE7       30.09S FOG
ASPEN          CLOUDY    57  31  37 SW7       30.19F
LARAMIE        CLOUDY    50  46  86 S12       30.08F
CASPER         CLEAR     68  42  38 S17       29.91R
CHEYENNE       CLOUDY    55  54  96 S7        30.04F FOG
SCOTTSBLUFF    CLOUDY    63  54  72 SE16G31   29.96F
GRAND ISLAND   MOCLDY    57  57 100 S9        30.09F FOG
OMAHA          PTCLDY    56  48  74 SE5       30.12S
SIOUX FALLS    PTCLDY    54  43  66 S12       30.08F
PIERRE         PTCLDY    54  42  64 SE12      29.92F
RAPID CITY     PTCLDY    61  45  55 S16       29.84F
BISMARCK       CLOUDY    57  40  52 SE13      29.86F
KANSAS CITY    CLEAR     57  55  93 E6        30.12S
HILL CITY      CLOUDY    61  61 100 E12       30.04F
WICHITA        CLOUDY    65  64  97 SE10      30.04F THUNDER
DODGE CITY     CLEAR     66  63  90 SE9       30.01F
OKLAHOMA CITY  MOCLDY    65  62  90 SE5       30.05S
DALLAS         PTCLDY    75  71  87 SE3       30.01S
AMARILLO       PTCLDY    68  61  78 S16       30.10S
$$




USA.gov is the U.S. government's official web portal to all federal, state and local government web resources and services.